Hourly Data Report for May 06, 2012

All times are specified in Local Standard Time (LST). Add 1 hour to adjust for Daylight Saving Time where and when it is observed.

DEER LAKE A
NEWFOUNDLAND

49°12'33.000" N
57°23'40.000" W
21.90 m
8401502
71809
YDF

Download Data

Hourly Data (May 2012)
Hourly Data Report for May 6, 2012
Temp Definition
°C
Dew Point Temp Definition
°C
Rel Hum Definition
%
Wind Dir Definition
10's deg

Wind Spd Definition
km/h
Visibility Definition
km
Stn Press Definition
kPa
Hmdx Definition


Wind Chill Definition


Weather Definition


TIME
00:30 Legend Double Dagger 5.2 3.9 91 4 18 10.0 101.56     LegendNANA
01:30 Legend Double Dagger 5.0 3.8 92 6 8 10.0 101.56     LegendNANA
02:30 Legend Double Dagger 4.7 3.7 93 5 14 10.0 101.55     Cloudy
03:30 Legend Double Dagger 4.0 2.8 92 6 15 10.0 101.56     LegendNANA
04:30 Legend Double Dagger 3.7 2.8 94 4 12 10.0 101.56     LegendNANA
05:30 Legend Double Dagger 3.5 2.6 94 4 15 10.0 101.59     Cloudy
06:30 Legend Double Dagger 3.5 2.5 93 2 13 10.0 101.60     LegendNANA
07:30 Legend Double Dagger 3.9 2.7 92 5 13 6.4 101.63     Drizzle,Fog
08:30 Legend Double Dagger 5.2 3.4 88 2 9 10.0 101.63     Cloudy
09:30 Legend Double Dagger 7.0 4.2 82 3 13 10.0 101.60     LegendNANA
10:30 Legend Double Dagger 8.6 4.8 77 36 10 10.0 101.57     LegendNANA
11:30 Legend Double Dagger 9.8 5.2 73 2 14 10.0 101.53     Cloudy
12:30 Legend Double Dagger 12.3 5.5 63 0 12 10.0 101.49     LegendNANA
13:30 Legend Double Dagger 13.0 5.7 61 36 14 10.0 101.45     LegendNANA
14:30 Legend Double Dagger 13.4 5.4 58 7 15 10.0 101.40     Cloudy
15:30 Legend Double Dagger 13.4 5.6 59 5 10 10.0 101.42     LegendNANA
16:30 Legend Double Dagger 13.2 5.4 59 2 9 10.0 101.41     LegendNANA
17:30 Legend Double Dagger 12.6 5.3 61 3 14 10.0 101.42     Mostly Cloudy
18:30 Legend Double Dagger 11.3 5.4 67 4 12 10.0 101.46     LegendNANA
19:30 Legend Double Dagger 9.5 4.5 71 3 13 10.0 101.51     LegendNANA
20:30 Legend Double Dagger 7.5 3.8 77 3 17 10.0 101.56     Cloudy
21:30 Legend Double Dagger 6.1 3.1 81 4 17 10.0 101.59     LegendNANA
22:30 Legend Double Dagger 5.1 3.0 86 4 15 10.0 101.61     LegendNANA
23:30 Legend Double Dagger 5.3 3.0 85 5 12 10.0 101.59     Cloudy

Notes on Data Quality.

Legend

  • E = Estimated
  • M = Missing
  • NA = Not Available
  • ‡ = Partner data that is not subject to review by the National Climate Archives
Date modified: